Home   Weather   24°11'N, 120°37'E   Past weeks
Flag for Taiwan

Past Weather in 24°11'N, 120°37'E, Taiwan — Yesterday and Last 2 Weeks

Now
81 °F

Passing clouds.


Feels Like: 86 °F
Forecast: 95 / 70 °F
Wind: 10 mph from Southwest

Location: Chiang Kai Shek

Current Time: Apr 24, 2019 at 8:33:21 pm

Latest Report: Apr 24, 2019 at 8:00 pm


Visibility: N/A

Pressure: 29.77 "Hg

Humidity: 84%

Dew Point: 75 °F

Location of 24°11'N, 120°37'ELocation

Past Weather in 24°11'N, 120°37'E — Graph

°F

24°11'N, 120°37'E Temperature Yesterday

Maximum temperature yesterday: 90 °F (at 12:00 pm)
Minimum temperature yesterday: 77 °F (at 4:30 am)
Average temperature yesterday: 82 °F

High & Low Weather Summary for the Past Weeks

 TemperatureHumidityPressure
High90 °F (Apr 23, 12:00 pm)100% (Apr 11, 7:07 pm)30.07 "Hg (Apr 11, 7:07 pm)
Low64 °F (Apr 11, 3:30 pm)61% (Apr 15, 11:30 am)29.71 "Hg (Apr 24, 4:30 pm)
Average74 °F85%29.87 "Hg
* Reported Apr 9 7:00 pm — Apr 24 7:00 pm, 24°11'N, 120°37'E. Weather by CustomWeather, © 2019

Note: Actual official high and low records may vary slightly from our data, if they occured in-between our weather recording intervals... More about our weather records

Advertising

24°11'N, 120°37'E Weather History for the Previous 24 Hours

Scroll right to see more
 ConditionsComfort  
Time TempWeatherWind HumidityBarometerVisibility
7:00 pm
Wed, Apr 24
81 °FPassing clouds.9 mph84%29.77 "HgN/A
6:30 pm81 °FPassing clouds.17 mph84%29.74 "HgN/A
6:07 pm81 °FPartly sunny.17 mph84%29.74 "HgN/A
5:30 pm82 °FScattered clouds.17 mph84%29.74 "HgN/A
5:00 pm84 °FPassing clouds.15 mph79%29.71 "HgN/A
4:30 pm86 °FPassing clouds.14 mph75%29.71 "HgN/A
4:00 pm84 °FPassing clouds.23 mph79%29.74 "HgN/A
3:30 pm84 °FScattered clouds.23 mph79%29.74 "HgN/A
3:20 pm84 °FScattered clouds.22 mph79%29.74 "HgN/A
2:30 pm84 °FScattered clouds.21 mph79%29.74 "HgN/A
2:00 pm86 °FPassing clouds.22 mph79%29.74 "HgN/A
1:30 pm86 °FPassing clouds.22 mph79%29.77 "HgN/A
1:00 pm86 °FPassing clouds.22 mph79%29.77 "HgN/A
12:30 pm86 °FPassing clouds.22 mph79%29.80 "HgN/A
12:00 pm86 °FScattered clouds.21 mph79%29.80 "HgN/A
11:47 am86 °FScattered clouds.20 mph79%29.83 "HgN/A
11:30 am86 °FScattered clouds.20 mph79%29.83 "HgN/A
11:00 am86 °FScattered clouds.20 mph79%29.83 "HgN/A
10:30 am86 °FBroken clouds.18 mph79%29.83 "HgN/A
10:00 am84 °FBroken clouds.18 mph79%29.83 "HgN/A
9:30 am84 °FPartly sunny.17 mph79%29.83 "HgN/A
9:00 am82 °FPartly sunny.15 mph79%29.86 "HgN/A
8:30 am84 °FPartly sunny.15 mph79%29.86 "HgN/A
8:00 am82 °FScattered clouds.14 mph79%29.83 "HgN/A
7:30 am82 °FScattered clouds.10 mph79%29.83 "HgN/A
7:00 am81 °FScattered clouds.9 mph84%29.83 "HgN/A
6:30 am79 °FScattered clouds.8 mph89%29.80 "HgN/A
6:00 am75 °FScattered clouds.6 mph94%29.80 "HgN/A
5:00 am75 °FPassing clouds.2 mph94%29.77 "HgN/A
4:30 am75 °FPassing clouds.3 mph94%29.77 "HgN/A
4:00 am75 °FPassing clouds.3 mph94%29.77 "HgN/A
3:30 am75 °FPassing clouds.7 mph94%29.77 "Hg6 mi
3:00 am77 °FPassing clouds.5 mph89%29.77 "HgN/A
2:30 am77 °FPassing clouds.6 mph89%29.77 "HgN/A
2:00 am79 °FPassing clouds.7 mph89%29.77 "HgN/A
1:30 am81 °FPassing clouds.6 mph79%29.77 "HgN/A
1:00 am79 °FPassing clouds.7 mph84%29.80 "HgN/A
12:30 am81 °FPassing clouds.8 mph79%29.80 "HgN/A
12:00 am81 °FPassing clouds.13 mph84%29.80 "HgN/A
11:30 pm
Tue, Apr 23
79 °FPassing clouds.10 mph89%29.80 "HgN/A
11:00 pm79 °FPassing clouds.10 mph89%29.80 "HgN/A
10:30 pm79 °FPassing clouds.12 mph89%29.83 "HgN/A
10:00 pm77 °FPassing clouds.9 mph89%29.83 "HgN/A
9:30 pm79 °FPassing clouds.8 mph89%29.83 "HgN/A
9:00 pm79 °FPassing clouds.12 mph89%29.80 "HgN/A
8:30 pm79 °FPassing clouds.14 mph89%29.80 "HgN/A
8:00 pm79 °FPassing clouds.13 mph89%29.80 "HgN/A
Weather by CustomWeather, © 2019

See weather overview